SL-14 R/B (11672 NORAD) Tracking and Keplerian Element Data

This shows tracking and keplerian element data for the satellite.

Feedback or suggestion? Click here.




ElementValue
Catalog11672
NameSL-14 R/B
Epoch Orbit41707
Epoch Day34.84745569
Epoch Year2025
RAAN325.3362
Inclination82.5176
Eccentricity0.0017473
Argument of Perigee56.0169
Mean Anonmoly304.2707
Mean Motion14.9020753
Decay Rate1.535E-05
L11 11672U 80005B 25034.84745569 .00001535 00000+0 15543-3 0 9996
L22 11672 82.5176 325.3362 0017473 56.0169 304.2707 14.90207530417074



Live tracking and technical data element details for SL-14 R/B (NORAD 11672). SL-14 R/B can be tracked NOW for your location showing map with azimuth and elevation plus other details from your city location.







IsCatalogInMostPopularTable: catalog: 11672, numindb: 468
Update: records affected: 1



GetName: 11672 SL-14 R/B

Hit Count: updated at: Thu, 15 May 2025 20:21:01 GMT